sat.trackr.live / text

‹ back to catalog

STARLINK-4642

NORAD 53720 · 2022-107W

PAYLOAD ACTIVE UNKNOWN

§ Identity

Operator
Country
US
Launch date
2022-09-05
Launch site
AFETR
Launch vehicle
Mass (kg)
RCS (m²)

Purposes: comms

External: N2YO · Heavens-Above · Gunter

§ Orbital elements

Epoch: 2026-09-20T02:55:17.107392Z

Period
93.85 min
Inclination
53.1584°
Eccentricity
0.0001056
Mean motion
15.34390468 rev/d
Perigee alt
462.0 km
Apogee alt
463.5 km
Semi-major
6,840.9 km
B*
9.7508e-5
RAAN
85.3646°
Arg perigee
89.2810°
Mean anomaly
270.8314°
Rev number
22,398

§ Raw data

STARLINK-46421 53720U 22107W   26263.12172578  .00002919  00000+0  97508-4 0  99942 53720  53.1584  85.3646 0001056  89.2810 270.8314 15.34390468223989

JSON: /api/v1/satellites/53720 · /tle

For live sub-satellite position, see the globe view (requires WebGL).

§ Visibility from observer

Set your observer location to see the next 7 days of passes ≥ 10°. The values pass through the URL so the page stays shareable.

No JS? Fill the form by hand. The geolocation button needs JavaScript.